This is the latest recevied weather packets stored in our database for station/object W0AVQ. If no packets are shown the sender has not sent any weather packets the latest 10 day(s).
| Time | Temp. | Humidity | Pressure | Rain* | Wind** | Luminosity | Snow |
|---|---|---|---|---|---|---|---|
| 1777916301 | 26.11° C | 41% | 1010.9 hPa | 0 mm | - | 69 W/m² | - |
| 1777915997 | 26.11° C | 44% | 1010.9 hPa | 0 mm | - | 74 W/m² | - |
| 1777915695 | 26.11° C | 45% | 1011 hPa | 0 mm | - | 82 W/m² | - |
| 1777915391 | 25.56° C | 44% | 1011.2 hPa | 0 mm | - | 77 W/m² | - |
| 1777915086 | 25.56° C | 49% | 1011.3 hPa | 0 mm | - | 68 W/m² | - |
| 1777914784 | 25.56° C | 44% | 1011.3 hPa | 0 mm | - | 88 W/m² | - |
| 1777914481 | 26.11° C | 43% | 1011.4 hPa | 0 mm | - | 98 W/m² | - |
| 1777914178 | 25.56° C | 46% | 1011.3 hPa | 0 mm | - | 122 W/m² | - |
| 1777913874 | 26.11° C | 46% | 1011.5 hPa | 0 mm | - | 106 W/m² | - |
| 1777913571 | 26.11° C | 44% | 1011.5 hPa | 0 mm | - | 121 W/m² | - |
| 1777913267 | 25.56° C | 46% | 1011.4 hPa | 0 mm | - | 129 W/m² | - |
| 1777912964 | 25.56° C | 47% | 1011.4 hPa | 0 mm | - | 75 W/m² | - |
| 1777912660 | 25.56° C | 45% | 1011.5 hPa | 0 mm | - | 119 W/m² | - |
| 1777912356 | 25° C | 49% | 1011.7 hPa | 0 mm | - | 144 W/m² | - |
| 1777912053 | 25° C | 47% | 1011.6 hPa | 0 mm | - | 168 W/m² | - |
| 1777911749 | 25° C | 48% | 1011.5 hPa | 0 mm | - | 85 W/m² | - |
| 1777911446 | 25° C | 50% | 1011.5 hPa | 0 mm | - | 75 W/m² | - |
| 1777911142 | 25° C | 52% | 1011.7 hPa | 0 mm | - | 134 W/m² | - |
| 1777910840 | 25° C | 53% | 1011.8 hPa | 0 mm | - | 145 W/m² | - |
| 1777910536 | 25° C | 49% | 1011.9 hPa | 0 mm | - | 133 W/m² | - |
| 1777910234 | 25° C | 48% | 1011.8 hPa | 0 mm | - | 142 W/m² | - |
| 1777909930 | 25° C | 49% | 1011.6 hPa | 0 mm | - | 131 W/m² | - |
| 1777909627 | 24.44° C | 51% | 1011.9 hPa | 0 mm | - | 120 W/m² | - |
| 1777909325 | 24.44° C | 49% | 1011.7 hPa | 0 mm | - | 118 W/m² | - |
| 1777909022 | 24.44° C | 50% | 1011.7 hPa | 0 mm | - | 112 W/m² | - |
* Rain latest hour (hover to see other rain measurements)
** Current wind speed in m/s (hover to see current wind gust speed)